Time,TemperatureF,DewpointF,PressureIn,WindDirection,WindDirectionDegrees,WindSpeedMPH,WindSpeedGustMPH,Humidity,HourlyPrecipIn,Conditions,Clouds,dailyrainin,SoftwareType,DateUTC
2013-03-14 00:00:00,41.4,31.3,29.88,West,261,8.0,13.0,67,0.00,,,0.01,meteohub,2013-03-14 04:00:00,
2013-03-14 00:01:00,41.4,31.3,29.88,WSW,251,8.0,13.0,67,0.00,,,0.01,meteohub,2013-03-14 04:01:00,
2013-03-14 00:06:00,41.2,31.1,29.88,WSW,257,5.0,13.0,67,0.00,,,0.01,meteohub,2013-03-14 04:06:00,
2013-03-14 00:12:00,41.0,31.3,29.88,WSW,257,6.0,13.0,68,0.00,,,0.00,meteohub,2013-03-14 04:12:00,
2013-03-14 00:17:00,40.8,31.1,29.88,WSW,257,5.0,13.0,68,0.00,,,0.00,meteohub,2013-03-14 04:17:00,
2013-03-14 00:22:00,40.6,31.3,29.88,WSW,257,6.0,13.0,69,0.00,,,0.00,meteohub,2013-03-14 04:22:00,
2013-03-14 00:27:00,40.6,31.3,29.88,WSW,255,5.0,13.0,69,0.00,,,0.00,meteohub,2013-03-14 04:27:00,
2013-03-14 00:32:00,40.3,31.3,29.88,WSW,255,3.0,10.0,70,0.00,,,0.00,meteohub,2013-03-14 04:32:00,
2013-03-14 00:37:00,40.1,31.5,29.88,WSW,254,3.0,10.0,71,0.00,,,0.00,meteohub,2013-03-14 04:37:00,
2013-03-14 00:42:00,39.9,31.3,29.88,WSW,254,3.0,10.0,71,0.00,,,0.00,meteohub,2013-03-14 04:42:00,
2013-03-14 00:47:00,39.7,31.1,29.87,WSW,254,7.0,10.0,71,0.00,,,0.00,meteohub,2013-03-14 04:47:00,
2013-03-14 00:52:00,39.6,30.9,29.87,WSW,254,3.0,8.0,71,0.00,,,0.00,meteohub,2013-03-14 04:52:00,
2013-03-14 00:57:00,39.4,30.7,29.87,WSW,254,6.0,8.0,71,0.00,,,0.00,meteohub,2013-03-14 04:57:00,
2013-03-14 01:02:00,39.4,30.7,29.87,WSW,254,3.0,8.0,71,0.00,,,0.00,meteohub,2013-03-14 05:02:00,
2013-03-14 01:07:00,39.0,30.7,29.87,WSW,254,6.0,8.0,72,0.00,,,0.00,meteohub,2013-03-14 05:07:00,
2013-03-14 01:12:00,38.8,30.6,29.87,WSW,254,6.0,9.0,72,0.00,,,0.00,meteohub,2013-03-14 05:12:00,
2013-03-14 01:17:00,38.8,30.6,29.87,WSW,254,3.0,9.0,72,0.00,,,0.00,meteohub,2013-03-14 05:17:00,
2013-03-14 01:22:00,38.7,30.7,29.87,WSW,254,4.0,8.0,73,0.00,,,0.00,meteohub,2013-03-14 05:22:00,
2013-03-14 01:27:00,38.7,31.1,29.87,WSW,254,3.0,8.0,74,0.00,,,0.00,meteohub,2013-03-14 05:27:00,
2013-03-14 01:32:00,38.5,30.9,29.87,WSW,252,5.0,8.0,74,0.00,,,0.00,meteohub,2013-03-14 05:32:00,
2013-03-14 01:37:00,38.5,30.9,29.87,WSW,252,6.0,8.0,74,0.00,,,0.00,meteohub,2013-03-14 05:37:00,
2013-03-14 01:42:00,38.5,30.9,29.87,WSW,252,2.0,8.0,74,0.00,,,0.00,meteohub,2013-03-14 05:42:00,
2013-03-14 01:47:00,38.5,30.9,29.87,WSW,252,4.0,8.0,74,0.00,,,0.00,meteohub,2013-03-14 05:47:00,
2013-03-14 01:53:00,38.1,30.2,29.87,WSW,253,5.0,8.0,73,0.00,,,0.00,meteohub,2013-03-14 05:53:00,
2013-03-14 01:57:00,37.9,30.4,29.87,WSW,252,4.0,7.0,74,0.00,,,0.00,meteohub,2013-03-14 05:57:00,
2013-03-14 02:03:00,37.8,30.2,29.87,WSW,253,6.0,7.0,74,0.00,,,0.00,meteohub,2013-03-14 06:03:00,
2013-03-14 02:08:00,37.8,30.2,29.87,WSW,253,6.0,7.0,74,0.00,,,0.00,meteohub,2013-03-14 06:08:00,
2013-03-14 02:13:00,37.6,30.0,29.87,WSW,253,4.0,8.0,74,0.00,,,0.00,meteohub,2013-03-14 06:13:00,
2013-03-14 02:18:00,37.6,30.0,29.87,WSW,253,5.0,8.0,74,0.00,,,0.00,meteohub,2013-03-14 06:18:00,
2013-03-14 02:23:00,37.8,30.2,29.87,WSW,254,7.0,9.0,74,0.00,,,0.00,meteohub,2013-03-14 06:23:00,
2013-03-14 02:28:00,37.8,29.8,29.87,WSW,255,4.0,9.0,73,0.00,,,0.00,meteohub,2013-03-14 06:28:00,
2013-03-14 02:33:00,37.6,30.0,29.87,WSW,254,7.0,10.0,74,0.00,,,0.00,meteohub,2013-03-14 06:33:00,
2013-03-14 02:38:00,37.6,30.0,29.87,WSW,257,7.0,10.0,74,0.00,,,0.00,meteohub,2013-03-14 06:38:00,
2013-03-14 02:43:00,37.6,29.7,29.87,WSW,257,8.0,10.0,73,0.00,,,0.00,meteohub,2013-03-14 06:43:00,
2013-03-14 02:48:00,37.4,29.5,29.87,WSW,255,6.0,10.0,73,0.00,,,0.00,meteohub,2013-03-14 06:48:00,
2013-03-14 02:53:00,37.2,29.3,29.87,WSW,255,5.0,10.0,73,0.00,,,0.00,meteohub,2013-03-14 06:53:00,
2013-03-14 02:58:00,37.4,29.5,29.87,WSW,254,5.0,10.0,73,0.00,,,0.00,meteohub,2013-03-14 06:58:00,
2013-03-14 03:03:00,37.6,29.3,29.87,West,262,6.0,12.0,72,0.00,,,0.00,meteohub,2013-03-14 07:03:00,
2013-03-14 03:08:00,37.8,29.1,29.87,West,259,8.0,12.0,71,0.00,,,0.00,meteohub,2013-03-14 07:08:00,
2013-03-14 03:13:00,37.8,29.1,29.87,West,261,7.0,14.0,71,0.00,,,0.00,meteohub,2013-03-14 07:13:00,
2013-03-14 03:18:00,37.8,28.9,29.87,West,265,12.0,14.0,70,0.00,,,0.00,meteohub,2013-03-14 07:18:00,
2013-03-14 03:23:00,37.9,29.1,29.87,WSW,258,8.0,14.0,70,0.00,,,0.00,meteohub,2013-03-14 07:23:00,
2013-03-14 03:28:00,37.9,29.1,29.87,West,273,13.0,17.0,70,0.00,,,0.00,meteohub,2013-03-14 07:28:00,
2013-03-14 03:33:00,37.9,29.1,29.87,West,273,16.0,17.0,70,0.00,,,0.00,meteohub,2013-03-14 07:33:00,
2013-03-14 03:38:00,37.0,27.1,29.87,West,269,13.0,17.0,67,0.00,,,0.00,meteohub,2013-03-14 07:38:00,
2013-03-14 03:43:00,36.7,27.1,29.87,West,269,12.0,20.0,68,0.00,,,0.00,meteohub,2013-03-14 07:43:00,
2013-03-14 03:48:00,36.1,25.9,29.87,West,277,15.0,20.0,66,0.00,,,0.00,meteohub,2013-03-14 07:48:00,
2013-03-14 03:53:00,36.1,25.9,29.87,West,271,10.0,24.0,66,0.00,,,0.00,meteohub,2013-03-14 07:53:00,
2013-03-14 03:58:00,36.0,25.3,29.87,West,270,15.0,24.0,65,0.00,,,0.00,meteohub,2013-03-14 07:58:00,
2013-03-14 04:03:00,35.8,24.4,29.87,West,278,14.0,20.0,63,0.00,,,0.00,meteohub,2013-03-14 08:03:00,
2013-03-14 04:08:00,35.6,24.6,29.87,WSW,250,7.0,20.0,64,0.00,,,0.00,meteohub,2013-03-14 08:08:00,
2013-03-14 04:13:00,35.4,24.8,29.87,West,263,7.0,20.0,65,0.00,,,0.00,meteohub,2013-03-14 08:13:00,
2013-03-14 04:19:00,35.4,24.4,29.87,West,273,10.0,20.0,64,0.00,,,0.00,meteohub,2013-03-14 08:19:00,
2013-03-14 04:24:00,35.4,24.4,29.87,WNW,284,8.0,20.0,64,0.00,,,0.00,meteohub,2013-03-14 08:24:00,
2013-03-14 04:29:00,35.4,24.4,29.87,West,271,10.0,19.0,64,0.00,,,0.00,meteohub,2013-03-14 08:29:00,
2013-03-14 04:34:00,35.2,24.3,29.88,West,260,19.0,19.0,64,0.00,,,0.00,meteohub,2013-03-14 08:34:00,
2013-03-14 04:39:00,35.2,23.9,29.87,WNW,288,10.0,19.0,63,0.00,,,0.00,meteohub,2013-03-14 08:39:00,
2013-03-14 04:44:00,35.2,23.5,29.88,West,265,7.0,20.0,62,0.00,,,0.00,meteohub,2013-03-14 08:44:00,
2013-03-14 04:49:00,35.2,23.2,29.88,WSW,244,10.0,20.0,61,0.00,,,0.00,meteohub,2013-03-14 08:49:00,
2013-03-14 04:54:00,35.2,23.2,29.88,West,273,8.0,18.0,61,0.00,,,0.00,meteohub,2013-03-14 08:54:00,
2013-03-14 04:59:00,35.2,23.2,29.88,West,273,6.0,18.0,61,0.00,,,0.00,meteohub,2013-03-14 08:59:00,
2013-03-14 05:04:00,35.2,22.8,29.88,WSW,254,9.0,18.0,60,0.00,,,0.00,meteohub,2013-03-14 09:04:00,
2013-03-14 05:09:00,35.2,22.3,29.88,West,279,12.0,18.0,59,0.00,,,0.00,meteohub,2013-03-14 09:09:00,
2013-03-14 05:14:00,35.4,22.1,29.88,West,264,6.0,18.0,58,0.00,,,0.00,meteohub,2013-03-14 09:14:00,
2013-03-14 05:19:00,35.4,21.7,29.88,West,275,8.0,20.0,57,0.00,,,0.00,meteohub,2013-03-14 09:19:00,
2013-03-14 05:24:00,35.4,21.7,29.88,West,267,9.0,20.0,57,0.00,,,0.00,meteohub,2013-03-14 09:24:00,
2013-03-14 05:29:00,35.4,21.7,29.88,West,281,6.0,20.0,57,0.00,,,0.00,meteohub,2013-03-14 09:29:00,
2013-03-14 05:34:00,35.4,21.7,29.88,West,267,9.0,18.0,57,0.00,,,0.00,meteohub,2013-03-14 09:34:00,
2013-03-14 05:39:00,35.4,21.2,29.88,West,273,6.0,18.0,56,0.00,,,0.00,meteohub,2013-03-14 09:39:00,
2013-03-14 05:44:00,35.2,21.6,29.88,WSW,255,5.0,18.0,57,0.00,,,0.00,meteohub,2013-03-14 09:44:00,
2013-03-14 05:49:00,35.1,21.7,29.89,West,260,11.0,18.0,58,0.00,,,0.00,meteohub,2013-03-14 09:49:00,
2013-03-14 05:54:00,35.1,20.1,29.89,West,273,15.0,15.0,54,0.00,,,0.00,meteohub,2013-03-14 09:54:00,
2013-03-14 05:59:00,34.9,19.4,29.89,West,271,12.0,14.0,53,0.00,,,0.00,meteohub,2013-03-14 09:59:00,
2013-03-14 06:04:00,34.9,19.4,29.89,West,261,8.0,14.0,53,0.00,,,0.00,meteohub,2013-03-14 10:04:00,
2013-03-14 06:09:00,34.7,19.8,29.89,West,259,7.0,14.0,54,0.00,,,0.00,meteohub,2013-03-14 10:09:00,
2013-03-14 06:14:00,34.5,19.6,29.89,WSW,255,7.0,19.0,54,0.00,,,0.00,meteohub,2013-03-14 10:14:00,
2013-03-14 06:19:00,34.5,19.9,29.89,West,263,4.0,19.0,55,0.00,,,0.00,meteohub,2013-03-14 10:19:00,
2013-03-14 06:24:00,34.5,19.6,29.89,West,269,8.0,19.0,54,0.00,,,0.00,meteohub,2013-03-14 10:24:00,
2013-03-14 06:29:00,34.5,19.6,29.89,West,265,6.0,19.0,54,0.00,,,0.00,meteohub,2013-03-14 10:29:00,
2013-03-14 06:34:00,34.3,19.8,29.89,West,269,6.0,17.0,55,0.00,,,0.00,meteohub,2013-03-14 10:34:00,
2013-03-14 06:39:00,34.3,19.8,29.89,West,269,15.0,17.0,55,0.00,,,0.00,meteohub,2013-03-14 10:39:00,
2013-03-14 06:44:00,34.3,19.4,29.90,WSW,254,14.0,17.0,54,0.00,,,0.00,meteohub,2013-03-14 10:44:00,
2013-03-14 06:49:00,34.2,19.2,29.90,WSW,246,10.0,17.0,54,0.00,,,0.00,meteohub,2013-03-14 10:49:00,
2013-03-14 06:54:00,34.0,18.7,29.90,WSW,250,12.0,17.0,53,0.00,,,0.00,meteohub,2013-03-14 10:54:00,
2013-03-14 06:59:00,33.6,18.3,29.90,West,264,20.0,23.0,53,0.00,,,0.00,meteohub,2013-03-14 10:59:00,
2013-03-14 07:04:00,33.3,18.5,29.90,WSW,255,8.0,23.0,54,0.00,,,0.00,meteohub,2013-03-14 11:04:00,
2013-03-14 07:09:00,33.1,18.3,29.90,West,270,20.0,23.0,54,0.00,,,0.00,meteohub,2013-03-14 11:09:00,
2013-03-14 07:14:00,32.9,18.5,29.90,West,261,12.0,23.0,55,0.00,,,0.00,meteohub,2013-03-14 11:14:00,
2013-03-14 07:20:00,32.7,17.4,29.90,West,269,13.0,23.0,53,0.00,,,0.00,meteohub,2013-03-14 11:20:00,
2013-03-14 07:25:00,32.5,17.2,29.90,West,268,10.0,24.0,53,0.00,,,0.00,meteohub,2013-03-14 11:25:00,
2013-03-14 07:30:00,32.5,16.9,29.90,West,269,15.0,24.0,52,0.00,,,0.00,meteohub,2013-03-14 11:30:00,
2013-03-14 07:35:00,32.5,16.9,29.90,West,259,14.0,24.0,52,0.00,,,0.00,meteohub,2013-03-14 11:35:00,
2013-03-14 07:40:00,32.5,16.9,29.90,WSW,242,8.0,24.0,52,0.00,,,0.00,meteohub,2013-03-14 11:40:00,
2013-03-14 07:45:00,32.5,16.0,29.90,West,262,18.0,23.0,50,0.00,,,0.00,meteohub,2013-03-14 11:45:00,
2013-03-14 07:50:00,32.9,16.3,29.90,WNW,298,8.0,23.0,50,0.00,,,0.00,meteohub,2013-03-14 11:50:00,
2013-03-14 07:55:00,33.1,16.9,29.91,West,264,8.0,23.0,51,0.00,,,0.00,meteohub,2013-03-14 11:55:00,
2013-03-14 08:00:00,33.1,16.0,29.91,West,268,17.0,23.0,49,0.00,,,0.00,meteohub,2013-03-14 12:00:00,
2013-03-14 08:05:00,33.3,15.6,29.91,West,273,13.0,23.0,48,0.00,,,0.00,meteohub,2013-03-14 12:05:00,
2013-03-14 08:10:00,33.3,15.6,29.91,West,259,11.0,26.0,48,0.00,,,0.00,meteohub,2013-03-14 12:10:00,
2013-03-14 08:15:00,33.4,15.8,29.91,West,264,8.0,26.0,48,0.00,,,0.00,meteohub,2013-03-14 12:15:00,
2013-03-14 08:20:00,33.4,15.4,29.91,West,281,16.0,26.0,47,0.00,,,0.00,meteohub,2013-03-14 12:20:00,
2013-03-14 08:25:00,33.6,16.0,29.91,WNW,282,15.0,30.0,48,0.00,,,0.00,meteohub,2013-03-14 12:25:00,
2013-03-14 08:30:00,33.6,15.6,29.91,WNW,284,12.0,30.0,47,0.00,,,0.00,meteohub,2013-03-14 12:30:00,
2013-03-14 08:35:00,33.8,15.6,29.91,WSW,251,11.0,30.0,47,0.00,,,0.00,meteohub,2013-03-14 12:35:00,
2013-03-14 08:40:00,34.0,15.8,29.91,SW,219,10.0,30.0,47,0.00,,,0.00,meteohub,2013-03-14 12:40:00,
2013-03-14 08:45:00,34.3,16.2,29.91,West,277,19.0,30.0,47,0.00,,,0.00,meteohub,2013-03-14 12:45:00,
2013-03-14 08:50:00,34.3,16.2,29.91,WSW,246,12.0,29.0,47,0.00,,,0.00,meteohub,2013-03-14 12:50:00,
2013-03-14 08:55:00,34.0,15.8,29.91,West,267,21.0,29.0,47,0.00,,,0.00,meteohub,2013-03-14 12:55:00,
2013-03-14 09:00:00,34.0,16.3,29.91,WSW,242,17.0,29.0,48,0.00,,,0.00,meteohub,2013-03-14 13:00:00,
2013-03-14 09:05:00,34.2,16.5,29.91,WNW,290,4.0,29.0,48,0.00,,,0.00,meteohub,2013-03-14 13:05:00,
2013-03-14 09:10:00,34.3,15.6,29.91,SW,234,13.0,29.0,46,0.00,,,0.00,meteohub,2013-03-14 13:10:00,
2013-03-14 09:15:00,34.3,16.7,29.91,West,275,14.0,29.0,48,0.00,,,0.00,meteohub,2013-03-14 13:15:00,
2013-03-14 09:20:00,33.6,15.6,29.91,WNW,286,13.0,29.0,47,0.00,,,0.00,meteohub,2013-03-14 13:20:00,
2013-03-14 09:25:00,33.4,15.8,29.91,WSW,252,7.0,25.0,48,0.00,,,0.00,meteohub,2013-03-14 13:25:00,
2013-03-14 09:30:00,33.4,15.8,29.91,WSW,249,13.0,25.0,48,0.00,,,0.00,meteohub,2013-03-14 13:30:00,
2013-03-14 09:35:00,33.4,16.9,29.91,SSW,207,13.0,25.0,50,0.00,,,0.00,meteohub,2013-03-14 13:35:00,
2013-03-14 09:40:00,33.1,16.0,29.91,WSW,250,9.0,25.0,49,0.00,,,0.00,meteohub,2013-03-14 13:40:00,
2013-03-14 09:45:00,33.3,16.7,29.91,WSW,248,12.0,25.0,50,0.00,,,0.00,meteohub,2013-03-14 13:45:00,
2013-03-14 09:50:00,32.9,17.2,29.91,West,265,28.0,28.0,52,0.00,,,0.00,meteohub,2013-03-14 13:50:00,
2013-03-14 09:55:00,32.4,16.7,29.92,West,262,14.0,24.0,52,0.00,,,0.00,meteohub,2013-03-14 13:55:00,
2013-03-14 10:00:00,31.8,16.2,29.92,West,266,17.0,24.0,52,0.00,,,0.00,meteohub,2013-03-14 14:00:00,
2013-03-14 10:05:00,31.6,15.6,29.91,West,274,20.0,24.0,51,0.00,,,0.00,meteohub,2013-03-14 14:05:00,
2013-03-14 10:10:00,31.6,15.1,29.92,West,264,15.0,29.0,50,0.00,,,0.00,meteohub,2013-03-14 14:10:00,
2013-03-14 10:15:00,31.6,14.2,29.92,WNW,286,17.0,29.0,48,0.00,,,0.00,meteohub,2013-03-14 14:15:00,
2013-03-14 10:20:00,31.8,13.8,29.91,West,277,27.0,29.0,47,0.00,,,0.00,meteohub,2013-03-14 14:20:00,
2013-03-14 10:25:00,31.6,12.7,29.92,WSW,250,18.0,32.0,45,0.00,,,0.00,meteohub,2013-03-14 14:25:00,
2013-03-14 10:31:00,31.5,13.1,29.91,WNW,287,19.0,32.0,46,0.00,,,0.00,meteohub,2013-03-14 14:31:00,
2013-03-14 10:36:00,31.5,12.6,29.91,West,275,13.0,32.0,45,0.00,,,0.00,meteohub,2013-03-14 14:36:00,
2013-03-14 10:41:00,32.2,13.6,29.91,WNW,289,16.0,32.0,46,0.00,,,0.00,meteohub,2013-03-14 14:41:00,
2013-03-14 10:46:00,31.6,11.7,29.91,West,281,21.0,30.0,43,0.00,,,0.00,meteohub,2013-03-14 14:46:00,
2013-03-14 10:51:00,31.5,12.0,29.91,West,265,11.0,30.0,44,0.00,,,0.00,meteohub,2013-03-14 14:51:00,
2013-03-14 10:56:00,31.6,12.2,29.91,West,273,7.0,30.0,44,0.00,,,0.00,meteohub,2013-03-14 14:56:00,
2013-03-14 11:01:00,32.2,13.3,29.91,West,261,8.0,30.0,45,0.00,,,0.00,meteohub,2013-03-14 15:01:00,
2013-03-14 11:06:00,31.8,12.4,29.92,West,263,11.0,30.0,44,0.00,,,0.00,meteohub,2013-03-14 15:06:00,
2013-03-14 11:11:00,31.8,12.9,29.92,WNW,292,18.0,30.0,45,0.00,,,0.00,meteohub,2013-03-14 15:11:00,
2013-03-14 11:16:00,31.8,12.9,29.91,West,274,18.0,30.0,45,0.00,,,0.00,meteohub,2013-03-14 15:16:00,
2013-03-14 11:22:00,32.4,13.5,29.91,WSW,254,18.0,30.0,45,0.00,,,0.00,meteohub,2013-03-14 15:22:00,
2013-03-14 11:27:00,32.2,13.3,29.91,West,259,18.0,29.0,45,0.00,,,0.00,meteohub,2013-03-14 15:27:00,
2013-03-14 11:32:00,32.4,12.9,29.91,NW,315,20.0,29.0,44,0.00,,,0.00,meteohub,2013-03-14 15:32:00,
2013-03-14 11:37:00,32.9,13.5,29.91,West,277,16.0,29.0,44,0.00,,,0.00,meteohub,2013-03-14 15:37:00,
2013-03-14 11:42:00,33.3,13.1,29.91,West,259,14.0,29.0,43,0.00,,,0.00,meteohub,2013-03-14 15:42:00,
2013-03-14 11:47:00,32.5,12.6,29.91,West,261,15.0,29.0,43,0.00,,,0.00,meteohub,2013-03-14 15:47:00,
2013-03-14 11:52:00,32.5,13.1,29.91,West,275,11.0,29.0,44,0.00,,,0.00,meteohub,2013-03-14 15:52:00,
2013-03-14 11:57:00,33.3,14.2,29.91,West,259,17.0,29.0,45,0.00,,,0.00,meteohub,2013-03-14 15:57:00,
2013-03-14 12:02:00,33.1,14.0,29.90,WNW,293,11.0,29.0,45,0.00,,,0.00,meteohub,2013-03-14 16:02:00,
2013-03-14 12:07:00,33.4,13.8,29.90,WNW,294,18.0,29.0,44,0.00,,,0.00,meteohub,2013-03-14 16:07:00,
2013-03-14 12:12:00,32.7,12.7,29.90,West,281,16.0,29.0,43,0.00,,,0.00,meteohub,2013-03-14 16:12:00,
2013-03-14 12:17:00,33.3,13.1,29.90,West,281,21.0,29.0,43,0.00,,,0.00,meteohub,2013-03-14 16:17:00,
2013-03-14 12:22:00,32.9,13.5,29.89,West,265,12.0,29.0,44,0.00,,,0.00,meteohub,2013-03-14 16:22:00,
2013-03-14 12:27:00,33.3,13.6,29.89,West,275,25.0,29.0,44,0.00,,,0.00,meteohub,2013-03-14 16:27:00,
2013-03-14 12:32:00,33.6,13.5,29.89,West,265,13.0,32.0,43,0.00,,,0.00,meteohub,2013-03-14 16:32:00,
2013-03-14 12:37:00,34.2,13.5,29.89,West,269,16.0,32.0,42,0.00,,,0.00,meteohub,2013-03-14 16:37:00,
2013-03-14 12:42:00,33.1,13.1,29.89,West,281,16.0,32.0,43,0.00,,,0.00,meteohub,2013-03-14 16:42:00,
2013-03-14 12:47:00,33.6,14.0,29.89,West,272,22.0,32.0,44,0.00,,,0.00,meteohub,2013-03-14 16:47:00,
2013-03-14 12:52:00,33.1,14.0,29.89,WSW,257,16.0,32.0,45,0.00,,,0.00,meteohub,2013-03-14 16:52:00,
2013-03-14 12:57:00,33.8,14.2,29.89,WSW,258,19.0,33.0,44,0.00,,,0.00,meteohub,2013-03-14 16:57:00,
2013-03-14 13:02:00,34.0,14.4,29.89,West,277,23.0,33.0,44,0.00,,,0.00,meteohub,2013-03-14 17:02:00,
2013-03-14 13:07:00,33.8,13.6,29.88,SW,227,17.0,33.0,43,0.00,,,0.00,meteohub,2013-03-14 17:07:00,
2013-03-14 13:12:00,34.0,14.4,29.89,West,271,15.0,33.0,44,0.00,,,0.00,meteohub,2013-03-14 17:12:00,
2013-03-14 13:18:00,33.8,13.6,29.88,NNW,329,14.0,33.0,43,0.00,,,0.00,meteohub,2013-03-14 17:18:00,
2013-03-14 13:23:00,34.0,14.4,29.88,WSW,244,16.0,30.0,44,0.00,,,0.00,meteohub,2013-03-14 17:23:00,
2013-03-14 13:28:00,34.2,15.6,29.88,West,264,15.0,30.0,46,0.00,,,0.00,meteohub,2013-03-14 17:28:00,
2013-03-14 13:33:00,34.7,15.1,29.88,West,264,16.0,30.0,44,0.00,,,0.00,meteohub,2013-03-14 17:33:00,
2013-03-14 13:38:00,34.3,14.7,29.88,WNW,290,12.0,30.0,44,0.00,,,0.00,meteohub,2013-03-14 17:38:00,
2013-03-14 13:43:00,34.3,14.7,29.88,West,260,14.0,30.0,44,0.00,,,0.00,meteohub,2013-03-14 17:43:00,
2013-03-14 13:48:00,34.5,15.4,29.88,WNW,292,14.0,30.0,45,0.00,,,0.00,meteohub,2013-03-14 17:48:00,
2013-03-14 13:53:00,35.2,15.4,29.87,WSW,256,25.0,30.0,44,0.00,,,0.00,meteohub,2013-03-14 17:53:00,
2013-03-14 13:58:00,34.3,14.7,29.87,SW,234,15.0,30.0,44,0.00,,,0.00,meteohub,2013-03-14 17:58:00,
2013-03-14 14:03:00,34.2,15.6,29.87,West,261,15.0,30.0,46,0.00,,,0.00,meteohub,2013-03-14 18:03:00,
2013-03-14 14:08:00,34.5,15.8,29.87,WSW,254,7.0,30.0,46,0.00,,,0.00,meteohub,2013-03-14 18:08:00,
2013-03-14 14:13:00,35.1,15.8,29.87,SW,227,12.0,30.0,45,0.00,,,0.00,meteohub,2013-03-14 18:13:00,
2013-03-14 14:18:00,34.7,15.1,29.86,West,277,12.0,30.0,44,0.00,,,0.00,meteohub,2013-03-14 18:18:00,
2013-03-14 14:23:00,35.1,15.3,29.86,West,263,12.0,28.0,44,0.00,,,0.00,meteohub,2013-03-14 18:23:00,
2013-03-14 14:28:00,35.6,15.3,29.86,WSW,253,16.0,28.0,43,0.00,,,0.00,meteohub,2013-03-14 18:28:00,
2013-03-14 14:33:00,35.4,16.2,29.86,West,269,9.0,28.0,45,0.00,,,0.00,meteohub,2013-03-14 18:33:00,
2013-03-14 14:38:00,35.4,15.6,29.86,WSW,247,19.0,26.0,44,0.00,,,0.00,meteohub,2013-03-14 18:38:00,
2013-03-14 14:43:00,35.1,15.8,29.86,WSW,245,12.0,26.0,45,0.00,,,0.00,meteohub,2013-03-14 18:43:00,
2013-03-14 14:48:00,35.4,15.6,29.86,WNW,298,16.0,26.0,44,0.00,,,0.00,meteohub,2013-03-14 18:48:00,
2013-03-14 14:53:00,35.4,15.6,29.86,West,271,11.0,26.0,44,0.00,,,0.00,meteohub,2013-03-14 18:53:00,
2013-03-14 14:58:00,34.9,15.6,29.86,West,271,14.0,30.0,45,0.00,,,0.00,meteohub,2013-03-14 18:58:00,
2013-03-14 15:03:00,35.1,15.8,29.86,WSW,258,14.0,30.0,45,0.00,,,0.00,meteohub,2013-03-14 19:03:00,
2013-03-14 15:08:00,34.5,14.9,29.86,West,275,18.0,30.0,44,0.00,,,0.00,meteohub,2013-03-14 19:08:00,
2013-03-14 15:13:00,35.2,15.4,29.86,NW,309,16.0,30.0,44,0.00,,,0.00,meteohub,2013-03-14 19:13:00,
2013-03-14 15:19:00,35.4,15.6,29.86,WNW,293,14.0,28.0,44,0.00,,,0.00,meteohub,2013-03-14 19:19:00,
2013-03-14 15:24:00,35.8,15.4,29.86,West,267,16.0,28.0,43,0.00,,,0.00,meteohub,2013-03-14 19:24:00,
2013-03-14 15:29:00,35.8,15.4,29.86,WSW,250,13.0,28.0,43,0.00,,,0.00,meteohub,2013-03-14 19:29:00,
2013-03-14 15:34:00,35.4,15.1,29.86,West,276,14.0,28.0,43,0.00,,,0.00,meteohub,2013-03-14 19:34:00,
2013-03-14 15:38:00,34.9,15.6,29.86,West,274,25.0,30.0,45,0.00,,,0.00,meteohub,2013-03-14 19:38:00,
2013-03-14 15:44:00,34.7,15.1,29.86,West,263,14.0,30.0,44,0.00,,,0.00,meteohub,2013-03-14 19:44:00,
2013-03-14 15:49:00,35.1,15.3,29.86,WNW,294,14.0,30.0,44,0.00,,,0.00,meteohub,2013-03-14 19:49:00,
2013-03-14 15:54:00,35.1,14.9,29.86,West,267,12.0,30.0,43,0.00,,,0.00,meteohub,2013-03-14 19:54:00,
2013-03-14 15:59:00,35.2,15.4,29.86,West,270,12.0,32.0,44,0.00,,,0.00,meteohub,2013-03-14 19:59:00,
2013-03-14 16:01:00,35.4,15.1,29.86,West,279,21.0,32.0,43,0.00,,,0.00,meteohub,2013-03-14 20:01:00,
2013-03-14 16:07:00,35.2,15.4,29.87,West,271,10.0,32.0,44,0.00,,,0.00,meteohub,2013-03-14 20:07:00,
2013-03-14 16:12:00,36.0,16.2,29.86,West,275,11.0,32.0,44,0.00,,,0.00,meteohub,2013-03-14 20:12:00,
2013-03-14 16:17:00,36.0,15.6,29.86,West,269,23.0,32.0,43,0.00,,,0.00,meteohub,2013-03-14 20:17:00,
2013-03-14 16:22:00,36.3,15.4,29.86,West,281,19.0,32.0,42,0.00,,,0.00,meteohub,2013-03-14 20:22:00,
2013-03-14 16:27:00,36.3,16.0,29.86,West,275,10.0,32.0,43,0.00,,,0.00,meteohub,2013-03-14 20:27:00,
2013-03-14 16:32:00,37.2,16.7,29.86,WNW,301,23.0,32.0,43,0.00,,,0.00,meteohub,2013-03-14 20:32:00,
2013-03-14 16:37:00,37.0,15.4,29.86,West,269,27.0,27.0,41,0.00,,,0.00,meteohub,2013-03-14 20:37:00,
2013-03-14 16:42:00,36.3,14.9,29.86,West,265,18.0,27.0,41,0.00,,,0.00,meteohub,2013-03-14 20:42:00,
2013-03-14 16:47:00,36.5,15.6,29.86,West,259,20.0,27.0,42,0.00,,,0.00,meteohub,2013-03-14 20:47:00,
2013-03-14 16:52:00,36.5,15.6,29.86,WNW,286,11.0,27.0,42,0.00,,,0.00,meteohub,2013-03-14 20:52:00,
2013-03-14 16:57:00,36.5,15.1,29.86,WNW,292,17.0,32.0,41,0.00,,,0.00,meteohub,2013-03-14 20:57:00,
2013-03-14 17:02:00,36.5,14.5,29.86,West,269,29.0,32.0,40,0.00,,,0.00,meteohub,2013-03-14 21:02:00,
2013-03-14 17:07:00,36.0,14.5,29.86,WSW,240,20.0,32.0,41,0.00,,,0.00,meteohub,2013-03-14 21:07:00,
2013-03-14 17:12:00,36.0,14.5,29.86,WSW,255,22.0,32.0,41,0.00,,,0.00,meteohub,2013-03-14 21:12:00,
2013-03-14 17:17:00,36.1,14.2,29.86,West,278,18.0,31.0,40,0.00,,,0.00,meteohub,2013-03-14 21:17:00,
2013-03-14 17:22:00,36.3,14.4,29.86,West,271,17.0,31.0,40,0.00,,,0.00,meteohub,2013-03-14 21:22:00,
2013-03-14 17:27:00,36.9,14.7,29.86,West,264,14.0,31.0,40,0.00,,,0.00,meteohub,2013-03-14 21:27:00,
2013-03-14 17:32:00,36.9,14.7,29.86,West,272,18.0,31.0,40,0.00,,,0.00,meteohub,2013-03-14 21:32:00,
2013-03-14 17:37:00,36.9,14.7,29.86,WNW,284,11.0,31.0,40,0.00,,,0.00,meteohub,2013-03-14 21:37:00,
2013-03-14 17:42:00,36.9,15.4,29.86,West,265,11.0,33.0,41,0.00,,,0.00,meteohub,2013-03-14 21:42:00,
2013-03-14 17:47:00,37.0,14.9,29.87,West,281,12.0,33.0,40,0.00,,,0.00,meteohub,2013-03-14 21:47:00,
2013-03-14 17:52:00,37.0,14.4,29.86,WSW,240,13.0,33.0,39,0.00,,,0.00,meteohub,2013-03-14 21:52:00,
2013-03-14 17:57:00,37.0,15.4,29.86,West,273,11.0,24.0,41,0.00,,,0.00,meteohub,2013-03-14 21:57:00,
2013-03-14 18:02:00,37.0,14.9,29.86,West,269,11.0,24.0,40,0.00,,,0.00,meteohub,2013-03-14 22:02:00,
2013-03-14 18:07:00,37.0,14.4,29.86,West,268,16.0,24.0,39,0.00,,,0.00,meteohub,2013-03-14 22:07:00,
2013-03-14 18:12:00,37.0,14.4,29.86,West,271,14.0,24.0,39,0.00,,,0.00,meteohub,2013-03-14 22:12:00,
2013-03-14 18:17:00,36.9,14.7,29.86,WSW,247,20.0,24.0,40,0.00,,,0.00,meteohub,2013-03-14 22:17:00,
2013-03-14 18:22:00,36.9,14.7,29.86,West,278,15.0,28.0,40,0.00,,,0.00,meteohub,2013-03-14 22:22:00,
2013-03-14 18:27:00,36.7,14.5,29.86,West,275,9.0,28.0,40,0.00,,,0.00,meteohub,2013-03-14 22:27:00,
2013-03-14 18:32:00,36.7,14.5,29.86,West,259,9.0,28.0,40,0.00,,,0.00,meteohub,2013-03-14 22:32:00,
2013-03-14 18:37:00,36.7,14.5,29.86,WNW,286,12.0,28.0,40,0.00,,,0.00,meteohub,2013-03-14 22:37:00,
2013-03-14 18:42:00,36.7,14.5,29.87,West,267,12.0,23.0,40,0.00,,,0.00,meteohub,2013-03-14 22:42:00,
2013-03-14 18:47:00,36.5,14.5,29.87,West,271,8.0,23.0,40,0.00,,,0.00,meteohub,2013-03-14 22:47:00,
2013-03-14 18:52:00,36.3,14.4,29.87,West,277,9.0,23.0,40,0.00,,,0.00,meteohub,2013-03-14 22:52:00,
2013-03-14 18:57:00,36.3,14.9,29.87,West,280,9.0,23.0,41,0.00,,,0.00,meteohub,2013-03-14 22:57:00,
2013-03-14 19:02:00,36.3,14.4,29.87,West,269,15.0,23.0,40,0.00,,,0.00,meteohub,2013-03-14 23:02:00,
2013-03-14 19:07:00,36.3,14.4,29.87,WNW,294,13.0,16.0,40,0.00,,,0.00,meteohub,2013-03-14 23:07:00,
2013-03-14 19:12:00,36.1,14.7,29.87,West,279,5.0,16.0,41,0.00,,,0.00,meteohub,2013-03-14 23:12:00,
2013-03-14 19:17:00,36.1,14.7,29.88,West,275,8.0,16.0,41,0.00,,,0.00,meteohub,2013-03-14 23:17:00,
2013-03-14 19:22:00,36.0,15.1,29.88,West,281,5.0,16.0,42,0.00,,,0.00,meteohub,2013-03-14 23:22:00,
2013-03-14 19:28:00,36.0,15.1,29.88,West,277,6.0,16.0,42,0.00,,,0.00,meteohub,2013-03-14 23:28:00,
2013-03-14 19:33:00,35.6,15.3,29.88,West,279,8.0,16.0,43,0.00,,,0.00,meteohub,2013-03-14 23:33:00,
2013-03-14 19:38:00,35.4,15.1,29.88,West,278,4.0,14.0,43,0.00,,,0.00,meteohub,2013-03-14 23:38:00,
2013-03-14 19:43:00,35.6,15.3,29.88,West,277,5.0,14.0,43,0.00,,,0.00,meteohub,2013-03-14 23:43:00,
2013-03-14 19:48:00,35.4,15.1,29.88,West,277,4.0,14.0,43,0.00,,,0.00,meteohub,2013-03-14 23:48:00,
2013-03-14 19:53:00,35.4,15.1,29.88,West,277,4.0,9.0,43,0.00,,,0.00,meteohub,2013-03-14 23:53:00,
2013-03-14 19:58:00,35.4,15.6,29.89,West,277,5.0,9.0,44,0.00,,,0.00,meteohub,2013-03-14 23:58:00,
2013-03-14 20:03:00,35.2,15.4,29.89,West,277,3.0,10.0,44,0.00,,,0.00,meteohub,2013-03-15 00:03:00,
2013-03-14 20:08:00,35.2,15.4,29.89,West,277,6.0,10.0,44,0.00,,,0.00,meteohub,2013-03-15 00:08:00,
2013-03-14 20:13:00,35.2,15.4,29.90,West,277,3.0,10.0,44,0.00,,,0.00,meteohub,2013-03-15 00:13:00,
2013-03-14 20:18:00,35.2,15.4,29.90,West,274,8.0,8.0,44,0.00,,,0.00,meteohub,2013-03-15 00:18:00,
2013-03-14 20:23:00,35.4,15.1,29.90,West,278,7.0,8.0,43,0.00,,,0.00,meteohub,2013-03-15 00:23:00,
2013-03-14 20:29:00,35.4,15.6,29.90,West,280,5.0,12.0,44,0.00,,,0.00,meteohub,2013-03-15 00:29:00,
2013-03-14 20:34:00,35.2,16.0,29.90,West,280,7.0,12.0,45,0.00,,,0.00,meteohub,2013-03-15 00:34:00,
2013-03-14 20:39:00,35.1,16.3,29.90,West,280,8.0,12.0,46,0.00,,,0.00,meteohub,2013-03-15 00:39:00,
2013-03-14 20:44:00,34.9,16.2,29.90,West,281,6.0,10.0,46,0.00,,,0.00,meteohub,2013-03-15 00:44:00,
2013-03-14 20:49:00,34.9,16.7,29.91,West,281,6.0,10.0,47,0.00,,,0.00,meteohub,2013-03-15 00:49:00,
2013-03-14 20:54:00,34.5,16.9,29.91,WNW,284,5.0,10.0,48,0.00,,,0.00,meteohub,2013-03-15 00:54:00,
2013-03-14 20:59:00,34.3,17.2,29.91,WNW,285,7.0,10.0,49,0.00,,,0.00,meteohub,2013-03-15 00:59:00,
2013-03-14 21:04:00,34.3,17.2,29.91,WNW,289,9.0,10.0,49,0.00,,,0.00,meteohub,2013-03-15 01:04:00,
2013-03-14 21:09:00,34.2,17.1,29.91,WNW,289,4.0,10.0,49,0.00,,,0.00,meteohub,2013-03-15 01:09:00,
2013-03-14 21:14:00,34.0,16.9,29.91,WNW,294,5.0,12.0,49,0.00,,,0.00,meteohub,2013-03-15 01:14:00,
2013-03-14 21:19:00,34.0,17.2,29.92,WNW,297,6.0,12.0,50,0.00,,,0.00,meteohub,2013-03-15 01:19:00,
2013-03-14 21:24:00,34.0,17.8,29.92,WNW,298,8.0,12.0,51,0.00,,,0.00,meteohub,2013-03-15 01:24:00,
2013-03-14 21:29:00,33.8,18.5,29.93,NW,319,9.0,12.0,53,0.00,,,0.00,meteohub,2013-03-15 01:29:00,
2013-03-14 21:34:00,33.6,18.7,29.93,NW,324,7.0,14.0,54,0.00,,,0.00,meteohub,2013-03-15 01:34:00,
2013-03-14 21:39:00,33.4,19.8,29.93,NW,322,9.0,14.0,57,0.00,,,0.00,meteohub,2013-03-15 01:39:00,
2013-03-14 21:44:00,33.1,20.3,29.93,NW,326,12.0,14.0,59,0.00,,,0.00,meteohub,2013-03-15 01:44:00,
2013-03-14 21:49:00,32.5,20.1,29.93,NW,325,6.0,18.0,60,0.00,,,0.00,meteohub,2013-03-15 01:49:00,
2013-03-14 21:54:00,32.4,20.8,29.94,NW,323,9.0,18.0,62,0.00,,,0.00,meteohub,2013-03-15 01:54:00,
2013-03-14 21:59:00,32.2,20.7,29.94,NW,322,10.0,16.0,62,0.00,,,0.00,meteohub,2013-03-15 01:59:00,
2013-03-14 22:04:00,32.2,20.7,29.94,NW,317,6.0,16.0,62,0.00,,,0.00,meteohub,2013-03-15 02:04:00,
2013-03-14 22:09:00,32.0,20.5,29.94,NW,325,3.0,16.0,62,0.00,,,0.00,meteohub,2013-03-15 02:09:00,
2013-03-14 22:14:00,31.8,20.7,29.94,NW,322,4.0,14.0,63,0.00,,,0.00,meteohub,2013-03-15 02:14:00,
2013-03-14 22:19:00,31.8,20.7,29.94,NW,321,4.0,14.0,63,0.00,,,0.00,meteohub,2013-03-15 02:19:00,
2013-03-14 22:24:00,31.6,20.5,29.94,NW,322,3.0,14.0,63,0.00,,,0.00,meteohub,2013-03-15 02:24:00,
2013-03-14 22:29:00,31.5,20.7,29.94,NW,322,3.0,11.0,64,0.00,,,0.00,meteohub,2013-03-15 02:29:00,
2013-03-14 22:34:00,31.5,20.7,29.94,NW,322,4.0,11.0,64,0.00,,,0.00,meteohub,2013-03-15 02:34:00,
2013-03-14 22:39:00,31.3,20.5,29.94,NW,322,3.0,6.0,64,0.00,,,0.00,meteohub,2013-03-15 02:39:00,
2013-03-14 22:44:00,31.1,19.9,29.94,NW,320,7.0,7.0,63,0.00,,,0.00,meteohub,2013-03-15 02:44:00,
2013-03-14 22:49:00,31.1,19.6,29.94,NW,320,4.0,6.0,62,0.00,,,0.00,meteohub,2013-03-15 02:49:00,
2013-03-14 22:54:00,31.1,19.6,29.94,NW,320,6.0,10.0,62,0.00,,,0.00,meteohub,2013-03-15 02:54:00,
2013-03-14 22:59:00,31.1,19.2,29.94,NW,320,2.0,10.0,61,0.00,,,0.00,meteohub,2013-03-15 02:59:00,
2013-03-14 23:04:00,31.1,19.2,29.94,NW,320,3.0,10.0,61,0.00,,,0.00,meteohub,2013-03-15 03:04:00,
2013-03-14 23:09:00,30.9,19.0,29.94,NW,320,3.0,10.0,61,0.00,,,0.00,meteohub,2013-03-15 03:09:00,
2013-03-14 23:14:00,30.9,19.0,29.94,NW,320,3.0,8.0,61,0.00,,,0.00,meteohub,2013-03-15 03:14:00,
2013-03-14 23:19:00,30.9,19.0,29.94,NW,320,5.0,7.0,61,0.00,,,0.00,meteohub,2013-03-15 03:19:00,
2013-03-14 23:24:00,30.9,19.0,29.94,NW,320,7.0,7.0,61,0.00,,,0.00,meteohub,2013-03-15 03:24:00,
2013-03-14 23:30:00,30.7,19.2,29.94,NW,319,2.0,7.0,62,0.00,,,0.00,meteohub,2013-03-15 03:30:00,
2013-03-14 23:35:00,30.7,19.2,29.94,NW,320,4.0,7.0,62,0.00,,,0.00,meteohub,2013-03-15 03:35:00,
2013-03-14 23:40:00,30.7,19.2,29.94,NW,320,3.0,7.0,62,0.00,,,0.00,meteohub,2013-03-15 03:40:00,
2013-03-14 23:45:00,30.7,19.6,29.94,NW,320,4.0,7.0,63,0.00,,,0.00,meteohub,2013-03-15 03:45:00,
2013-03-14 23:50:00,30.7,19.6,29.94,NW,320,5.0,6.0,63,0.00,,,0.00,meteohub,2013-03-15 03:50:00,
2013-03-14 23:55:00,30.9,19.8,29.94,NW,320,2.0,6.0,63,0.00,,,0.00,meteohub,2013-03-15 03:55:00,